Springfield, IL

12:02 AM CDT on June 25, 2017 (GMT -0500)
Capital

Weather History for KSPI - November, 2010

Change the Weather History Date:

Sunday, November 7, 2010

  Actual Average Record
Temperature  
Mean Temperature 52 °F 47 °F  
Max Temperature 68 °F 57 °F 79 °F (1945)
Min Temperature 36 °F 38 °F 10 °F (1951)
Degree Days  
Heating Degree Days 13 18  
Month to date heating degree days 149 116  
Since 1 July heating degree days 437 526  
Cooling Degree Days 0 0  
Month to date cooling degree days 0 0  
Year to date cooling degree days 1554 1121  
Growing Degree Days 2 (Base 50)    
Moisture  
Dew Point 25 °F    
Average Humidity 37    
Maximum Humidity 52    
Minimum Humidity 22    
Precipitation  
Precipitation 0.00 in 0.10 in 1.24 in (1925)
Month to date precipitation 0.06 0.72  
Year to date precipitation 43.52 32.42  
Snow  
Snow 0.00 in 0.00 in 1.60 in (1991)
Month to date snowfall 0.0 0.0  
Since 1 July snowfall 0.0 T  
Since 1 September snowfall 0.0 T  
Snow Depth 0.00 in    
Sea Level Pressure  
Sea Level Pressure 30.23 in    
Wind  
Wind Speed 12 mph (SSW)    
Max Wind Speed 20 mph    
Max Gust Speed 25 mph    
Visibility 10 miles    
Events      
T = Trace of Precipitation, MM = Missing Value Source: NWS Daily Summary

Daily Weather History Graph

Daily Weather History Graph

Search for Another Location

Airport or City:

Trip Planner

Search our weather history database for the weather conditions in past years. The results will help you decide how hot, cold, wet, or windy it might be!

Date:

Astronomy

Nov. 07, 2010 Rise Set
Actual Time 6:34 AM CST 4:49 PM CST
Civil Twilight 6:05 AM CST 5:18 PM CST
Nautical Twilight 5:33 AM CST 5:50 PM CST
Astronomical Twilight 5:02 AM CST 6:22 PM CST
Moon 8:19 AM CST (11/7) 5:49 PM CST (11/7)
Length of Visible Light 11h 12m
Length of Day
10h 15m
Waxing Crescent, 3% of the Moon is Illuminated
Nov 7
Waxing Crescent
Nov 13
First Quarter
Nov 21
Full
Nov 28
Last Quarter
Dec 5
New

Hourly Weather History & Observations

Time (CST) Temp. Windchill Dew Point Humidity Pressure Visibility Wind Dir Wind Speed Gust Speed Precip Events Conditions
12:52 AM 39.9 °F 31.8 °F 19.9 °F 45% 30.35 in 10.0 mi South 15.0 mph - N/A   Clear
1:52 AM 39.0 °F 30.3 °F 19.9 °F 46% 30.34 in 10.0 mi South 16.1 mph - N/A   Clear
1:52 AM 39.9 °F 32.1 °F 19.9 °F 45% 30.35 in 10.0 mi South 13.8 mph - N/A   Clear
2:52 AM 39.0 °F 31.4 °F 19.9 °F 46% 30.34 in 10.0 mi South 12.7 mph - N/A   Clear
3:52 AM 37.9 °F 30.5 °F 21.0 °F 51% 30.34 in 10.0 mi South 11.5 mph - N/A   Clear
4:52 AM 37.0 °F 30.4 °F 21.0 °F 52% 30.35 in 10.0 mi South 9.2 mph - N/A   Clear
5:52 AM 37.0 °F 28.9 °F 21.9 °F 54% 30.33 in 10.0 mi South 12.7 mph - N/A   Clear
6:52 AM 37.0 °F 29.3 °F 21.9 °F 54% 30.32 in 10.0 mi South 11.5 mph - N/A   Clear
7:52 AM 39.9 °F 32.1 °F 23.0 °F 51% 30.32 in 10.0 mi South 13.8 mph - N/A   Clear
8:52 AM 46.0 °F 40.6 °F 24.1 °F 42% 30.31 in 10.0 mi South 11.5 mph - N/A   Clear
9:52 AM 53.1 °F - 25.0 °F 34% 30.30 in 10.0 mi SSW 15.0 mph 21.9 mph N/A   Clear
10:52 AM 59.0 °F - 27.0 °F 29% 30.26 in 10.0 mi SSW 15.0 mph 19.6 mph N/A   Clear
11:52 AM 62.1 °F - 27.0 °F 26% 30.22 in 10.0 mi SW 12.7 mph 21.9 mph N/A   Clear
12:52 PM 66.0 °F - 28.9 °F 25% 30.17 in 10.0 mi SSW 13.8 mph 20.7 mph N/A   Clear
1:52 PM 68.0 °F - 28.9 °F 23% 30.15 in 10.0 mi SSW 15.0 mph 23.0 mph N/A   Clear
2:52 PM 68.0 °F - 28.9 °F 23% 30.13 in 10.0 mi SSW 15.0 mph 20.7 mph N/A   Clear
3:52 PM 66.2 °F - 30.2 °F 26% 30.12 in 10.0 mi SSW 12.7 mph - N/A   Clear
4:52 PM 64.0 °F - 28.9 °F 27% 30.12 in 10.0 mi SSW 10.4 mph 17.3 mph N/A   Clear
5:52 PM 60.1 °F - 28.9 °F 31% 30.13 in 10.0 mi South 11.5 mph - N/A   Clear
6:52 PM 57.9 °F - 28.9 °F 33% 30.12 in 10.0 mi South 10.4 mph - N/A   Clear
7:52 PM 55.9 °F - 28.9 °F 36% 30.10 in 10.0 mi South 11.5 mph - N/A   Clear
8:52 PM 53.1 °F - 28.9 °F 40% 30.09 in 10.0 mi South 11.5 mph - N/A   Clear
9:52 PM 52.0 °F - 28.9 °F 41% 30.08 in 10.0 mi South 10.4 mph - N/A   Clear
10:52 PM 51.1 °F - 28.9 °F 43% 30.08 in 10.0 mi SSW 10.4 mph - N/A   Clear